{"data":{"norad_id":67786,"intl_designator":"2026-030Y","name":"KUIPER-00259","alt_names":[],"object_type":"PAYLOAD","status":"ACTIVE","operator":null,"country":"US","launch_date":"2026-02-12","launch_site_code":"FRGUI","launch_vehicle":null,"mission":null,"orbit_class":"UNKNOWN","rcs_meters":null,"size_class":null,"mass_kg":null,"dimensions":null,"purposes":[],"wikipedia_slug":null,"has_3d_model":false,"image_url":null,"decayed_at":null,"tle_current":{"epoch":"2026-05-25T05:00:33.983424Z","epoch_age_seconds":67131,"freshness":"FRESH","line1":"1 67786U 26030Y   26145.20872666  .00001593  00000+0  25797-3 0  9990","line2":"2 67786  51.8979 219.3635 0001518 103.7129 256.4001 14.76357190 16729","mean_motion":14.7635719,"eccentricity":0.0001518,"inclination_deg":51.8979,"raan_deg":219.3635,"arg_perigee_deg":103.7129,"mean_anomaly_deg":256.4001,"bstar":0.00025797,"rev_number":1672,"period_min":97.53737169797,"perigee_km":639.78087076021,"apogee_km":641.91183410601,"semimajor_km":7018.9833524331,"source":"CELESTRAK","updated_at":"2026-05-25T13:38:07.261828Z"}}}